Погода в Альменеве

Россия / Курганская область     54°56′39″N   63°34′49″E
темп.,
°C
ветер,
м/с
пор.,
м/с
влажн.,
%
обл.,
%
осадки,
мм/ч
давл.,
гПа
погр.,
м
9 мая, вс
вс923:00+15с3342100 0.0 101530
02:00+15ссв2339100 0.0 101427
05:00+13ссв3544100 0.0 101486
08:00+15ссв5846100 0.0 1013241
11:00+19св5836100 0.0 1013497
14:00+22в91130100 0.0 10132603
17:00+17юв91054100 0.0 1015574
20:00+14всв71368100 0.1 1018884
10 мая, пн
пн1023:00+13ссв3572100 0.3 1017170
02:00+13с6117297 0.1 1018372
05:00+10св5126936 0.1 1019255
08:00+13всв7104983 0.0 1020557
11:00+17всв783393 0.0 10211352
14:00+19всв782799 0.0 10221677
17:00+19всв672642 0.0 10221847
20:00+15в374033 0.0 1024130
11 мая, вт
вт1123:00+12всв234226 0.0 102619
02:00+10в33473 0.0 102624
05:00+8всв22522 0.0 102810
08:00+14в34410 0.0 1028291
11:00+18в22295 0.0 10291497
14:00+21ссв1125100 0.0 10281733
17:00+21ссз2124100 0.0 10281784
20:00+17ссз2236100 0.0 102818
12 мая, ср
ср1223:00+15ссз2237100 0.0 102910
02:00+13зсз22415 0.0 102911
05:00+11з33485 0.0 102919
08:00+16зсз343950 0.0 1029261
11:00+20сз4535100 0.0 1028903
14:00+22ссз574566 0.0 10281609
17:00+22ссз7831100 0.0 10271930
20:00+18с485535 0.0 1028204
13 мая, чт
чт1323:00+14св366566 0.0 1028101
02:00+12св336677 0.0 102932
05:00+13с1161100 0.0 102911
08:00+16зсз23526 0.0 1029348
11:00+21ссз464336 0.0 10281642
14:00+24ссз463634 0.0 10262314
17:00+25ссз57335 0.0 10262513
20:00+21ссз33485 0.0 102631